Temp
64 71 72 70 71 71 71 72 72 69 69 68 67 67 66 65 64 64 63 63 62 62
66 63 65 69 70 72 73 72 69 69 68 68 68 67 66 64 63 63 62 63 62 62
67 67 65 64 63 64 68 67 65 67 67 66 67 66 65 62 62 62 61 61 61 61
66 66 66 65 65 66 64 64 67 69 68 67 66 64 62 61 61 61 59 60 60 61
62 63 63 63 63 63 64 64 68 68 69 69 66 61 61 61 62 61 60 60 59 60
61 61 61 62 64 63 63 64 64 65 66 65 64 62 61 62 62 61 61 60 59 59
56 57 59 61 61 62 63 61 61 64 65 64 64 63 62 62 60 60 60 60 59 59
56 59 58 59 61 61 61 61 61 63 64 65 65 65 62 62 60 59 59 59 60 59
58 58 59 58 58 59 59 60 60 59 59 59 63 57 56 60 60 59 59 58 58 59
58 57 57 57 57 57 57 58 59 59 59 58 58 53 52 54 60 59 57 58 58 58
58 57 57 56 55 55 56 57 57 57 59 58 59 53 52 52 60 59 59 59 58 57
58 57 58 57 57 57 55 55 55 56 56 56 59 51 50 51 55 55 57 58 57 57
56 55 56 56 55 54 53 54 56 56 56 54 56 49 49 48 54 54 55 55 55 52
53 52 53 52 51 52 50 51 51 52 52 53 52 54 49 48 52 53 54 55 53 55
MSLP
1008.04 1008.23 1008.62 1009.13 1009.80 1010.42 1010.91 1011.14 1011.39 1011.81 1012.12 1012.52 1013.15 1013.68 1014.15 1014.47 1014.70 1014.92 1015.35 1015.84 1016.14 1016.36
1007.86 1008.17 1008.45 1008.63 1009.02 1009.58 1010.08 1010.63 1010.98 1011.34 1011.79 1012.15 1012.73 1013.24 1013.71 1014.11 1014.38 1014.67 1015.10 1015.46 1015.76 1016.05
1007.41 1007.85 1008.18 1008.68 1009.12 1009.39 1009.61 1010.02 1010.47 1010.93 1011.41 1011.86 1012.31 1012.82 1013.35 1013.83 1014.14 1014.49 1014.94 1015.32 1015.57 1015.89
1007.45 1007.89 1007.85 1008.34 1008.60 1008.77 1009.12 1009.56 1009.97 1010.34 1010.87 1011.38 1011.89 1012.31 1013.02 1013.58 1013.98 1014.31 1014.84 1015.13 1015.42 1015.73
1007.79 1007.99 1008.14 1007.97 1008.16 1008.47 1008.61 1008.82 1009.17 1009.75 1010.29 1010.82 1011.40 1012.10 1012.98 1013.48 1013.68 1014.19 1014.70 1014.90 1015.24 1015.47
1008.27 1008.14 1008.50 1008.11 1007.71 1007.84 1007.89 1007.99 1008.54 1009.21 1009.93 1010.41 1010.99 1011.82 1012.40 1012.82 1013.35 1013.92 1014.20 1014.42 1014.81 1015.11
1009.52 1009.04 1008.51 1008.57 1008.51 1008.38 1008.14 1008.08 1008.59 1008.61 1009.03 1009.73 1010.53 1011.32 1012.05 1012.37 1013.07 1013.60 1013.75 1013.86 1014.17 1014.59
1009.28 1010.06 1008.37 1009.07 1009.30 1008.84 1008.77 1008.56 1008.92 1009.02 1008.96 1009.37 1010.04 1010.61 1011.25 1011.90 1012.51 1012.96 1013.28 1013.45 1013.69 1014.01
1009.40 1009.44 1010.03 1008.69 1010.02 1009.85 1009.32 1009.28 1008.81 1009.61 1009.89 1010.06 1010.09 1010.42 1010.84 1011.24 1011.87 1012.18 1012.61 1013.16 1013.30 1013.43
1009.29 1009.30 1008.79 1008.10 1009.23 1009.75 1009.43 1009.94 1009.89 1009.16 1009.95 1010.28 1010.44 1010.69 1011.05 1011.25 1011.39 1011.68 1011.98 1012.41 1012.74 1013.12
1009.42 1009.20 1008.89 1008.74 1009.23 1008.91 1009.45 1010.34 1009.97 1009.66 1009.64 1009.59 1010.13 1010.18 1010.58 1011.28 1011.15 1011.09 1011.13 1011.59 1012.04 1012.53
1009.15 1009.32 1009.13 1009.12 1009.28 1009.07 1009.21 1009.91 1010.49 1009.70 1009.72 1009.65 1009.79 1009.81 1010.12 1010.49 1011.00 1010.83 1010.94 1011.02 1011.22 1011.75
1008.51 1008.94 1008.84 1008.55 1008.54 1008.66 1009.01 1009.11 1009.71 1009.32 1008.49 1009.23 1009.41 1009.59 1009.95 1010.08 1010.17 1010.46 1010.55 1010.70 1010.89 1011.14
1008.44 1008.57 1008.59 1008.55 1008.74 1008.61 1009.09 1009.20 1009.50 1009.45 1008.68 1009.12 1008.91 1008.88 1009.05 1009.24 1010.02 1010.20 1010.25 1010.31 1010.53 1010.46
Wind_Speed
8 10 10 12 9 9 9 10 11 10 8 8 7 6 6 4 4 5 4 6 4 3
7 7 8 11 10 10 11 8 8 9 9 8 8 8 7 5 6 5 4 3 3 3
8 8 7 6 7 7 9 7 7 8 8 7 7 7 7 5 4 6 3 3 3 2
7 6 7 10 10 11 8 8 9 11 10 9 9 7 7 6 6 6 5 3 4 3
1 3 6 7 9 10 12 8 10 10 11 10 9 7 7 7 6 6 6 6 4 3
4 1 5 7 8 7 7 10 9 11 12 11 10 8 7 7 7 7 7 7 6 5
8 6 5 4 6 5 6 5 6 8 10 10 10 10 9 7 7 7 7 6 6 6
6 10 11 12 8 6 5 1 3 6 7 10 11 9 10 9 8 8 7 6 6 6
5 7 8 7 9 5 4 6 5 1 0 1 1 7 11 9 7 7 7 7 7 6
4 6 9 5 5 9 7 4 4 7 7 7 7 8 9 8 6 7 7 7 6 5
5 5 3 3 6 5 5 7 5 5 7 7 7 12 11 12 9 6 7 8 8 7
5 7 8 9 11 10 8 9 6 4 4 3 6 9 13 9 6 5 7 7 7 8
4 4 5 4 4 2 3 4 4 5 5 5 3 3 6 6 3 5 6 6 7 11
5 6 5 4 3 2 4 4 5 5 4 5 4 6 7 4 3 4 4 6 4 5
Wind_Direction
182 182 186 184 183 191 197 207 204 201 200 192 179 181 178 171 178 174 180 173 188 176
181 178 184 184 181 190 195 201 199 199 196 191 179 179 173 177 175 169 164 179 182 190
182 184 193 173 180 188 202 187 177 184 191 182 179 176 171 167 167 157 152 157 153 177
209 215 177 185 192 198 191 185 185 190 187 184 180 180 167 170 171 165 160 161 165 191
332 228 198 195 193 189 190 187 189 187 190 187 172 158 173 175 170 179 180 177 167 198
10 23 264 243 207 204 191 186 174 169 183 174 162 166 185 179 172 189 195 176 177 179
355 12 4 303 297 272 235 183 195 186 172 168 170 179 188 169 179 192 198 188 191 176
20 355 38 18 352 306 282 6 304 226 189 182 178 178 175 180 180 184 193 199 204 197
324 338 328 37 357 327 314 265 144 141 343 60 139 182 174 167 181 188 184 202 219 221
231 249 299 43 337 339 356 307 246 167 194 210 226 242 253 235 188 185 190 199 206 224
276 269 258 223 240 238 327 318 282 254 216 186 214 218 219 240 232 201 200 199 207 206
247 247 247 232 228 225 210 219 245 259 273 242 254 233 231 221 220 210 230 218 207 200
277 290 280 264 222 190 192 189 231 220 170 166 221 261 262 221 211 209 219 231 227 211
217 209 214 214 238 252 255 242 225 251 255 279 250 278 264 241 193 214 226 225 224 214